"Pseudo-MPEC" for CCD6A52

Created 2024 Dec 16 11:31:04 UT using Find_Orb

Click here for an explanation of pseudo-MPECs

 
 Astrometry: 
     CCD6A52*1C2024 11 26.42862308 33 00.814+44 08 00.78   ~BQBH       VNEOCPG96
     CCD6A52 1C2024 11 26.43443208 32 40.045+44 08 58.13   ~BQBH       VNEOCPG96
     CCD6A52*1C2024 11 26.44149608 32 14.939+44 10 06.78   ~BQGlx19.69GVNEOCPG96
     CCD6A52 1C2024 11 26.44386608 32 06.043+44 10 30.83   ~BQBHx20.31GVNEOCPG96
     CCD6A52 1C2024 11 26.44730108 31 53.890+44 11 02.94   ~BQGl 19.53GVNEOCPG96
     CCD6A52 1C2024 11 26.45310308 31 33.424+44 11 57.37   ~BQGl 19.39GVNEOCPG96
     CCD6A52 KC2024 11 26.48514308 29 40.783+44 16 38.82   ~BQGl 19.30GVNEOCPI52
     CCD6A52 KC2024 11 26.48635708 29 36.539+44 16 48.72   ~BQGl 19.25GVNEOCPI52
     CCD6A52 KC2024 11 26.48756108 29 32.341+44 16 58.76   ~BQGl 19.14GVNEOCPI52

Station data:
(G96) Mt. Lemmon Survey  (N32.442729 W110.788720)  US/Arizona.  Observer E.
   J. Christensen. 1.5-m reflector + 10K CCD.
(I52) Steward Observatory, Mt. Lemmon Station  (N32.442570 W110.788920)
   US/Arizona.  Observers T. A. Pruyne, B. M. Africano, E. J. Christensen, G.
   A. Farneth, D. C. Fuls, A. R. Gibbs, A. D. Grauer, H. Gröller, J. A.
   Johnson, R. A. Kowalski, S. M. Larson, G. J. Leonard, D. Rankin, R. L.
   Seaman, F. C. Shelly, K. W. Wierzchoś. 1.0-m prime focus + CCD.

Orbital elements:  CCD6A52
   Perihelion 2024 Oct 24.81679 +/- 1.45 TT = 19:36:10 (JD 2460608.31679)
Epoch 2024 Nov 26.0 TT = JDT 2460640.5   Earth MOID: 0.0019   Ma: 0.0488
M  16.10170931 +/- 2.6              (J2000 ecliptic)             AutoNEOCP
n   0.50031397 +/- 0.0634           Peri.  321.86823 +/- 1.3
a   1.57147554 +/- 0.136            Node    61.90144 +/- 0.16
e   0.4135443 +/- 0.0526            Incl.    5.41364 +/- 0.51
P   1.970/719.535d         H 27.18  G  0.15   U 10.9
q 0.92160073 +/- 0.00637    Q 2.22135034 +/- 0.276
7 of 9 observations 2024 Nov. 26 (84.9 min); mean residual 0".42
Residuals in arcseconds: 
241126 G96  .28-  .21+    241126 G96( 2.1-  .64+)   241126 I52  .25+  .05+    
241126 G96  .68+  .33-    241126 G96  1.1-  .05+    241126 I52  .03-  .09-    
241126 G96( 2.6+  .63-)   241126 G96  .68+  .09+    241126 I52  .22-  .03+    

Ephemerides (geocentric):
Date (UTC) HH   RA             Dec           delta  r     elong  mag " sig PA
---- --------  ------------   ------------  ------ ------ -----  --- --------
2024 12 16 12  06 24 24.901   +44 32 07.94  .11496 1.0906 156.7 23.7  171  58
2024 12 16 13  06 24 22.273   +44 31 50.51  .11519 1.0908 156.7 23.7  171  58
2024 12 16 14  06 24 19.651   +44 31 33.05  .11542 1.0911 156.7 23.7  170  58
2024 12 16 15  06 24 17.035   +44 31 15.57  .11565 1.0913 156.7 23.7  170  58
2024 12 16 16  06 24 14.426   +44 30 58.08  .11588 1.0915 156.8 23.7  170  58
2024 12 16 17  06 24 11.823   +44 30 40.56  .11611 1.0917 156.8 23.7  169  58
2024 12 16 18  06 24 09.227   +44 30 23.02  .11634 1.0920 156.8 23.7  169  58
2024 12 16 19  06 24 06.636   +44 30 05.46  .11657 1.0922 156.8 23.7  169  58
2024 12 16 20  06 24 04.052   +44 29 47.88  .11680 1.0924 156.9 23.7  169  58
2024 12 16 21  06 24 01.475   +44 29 30.28  .11703 1.0927 156.9 23.7  168  58
2024 12 16 22  06 23 58.903   +44 29 12.65  .11726 1.0929 156.9 23.7  168  58
2024 12 16 23  06 23 56.338   +44 28 55.01  .11749 1.0931 156.9 23.7  168  58
2024 12 17 00  06 23 53.778   +44 28 37.35  .11772 1.0934 157.0 23.7  167  58
2024 12 17 01  06 23 51.225   +44 28 19.66  .11795 1.0936 157.0 23.8  167  58
2024 12 17 02  06 23 48.678   +44 28 01.96  .11818 1.0938 157.0 23.8  167  58
2024 12 17 03  06 23 46.137   +44 27 44.23  .11841 1.0940 157.0 23.8  167  58
2024 12 17 04  06 23 43.603   +44 27 26.49  .11864 1.0943 157.1 23.8  166  58
2024 12 17 05  06 23 41.074   +44 27 08.72  .11887 1.0945 157.1 23.8  166  58
2024 12 17 06  06 23 38.551   +44 26 50.93  .11910 1.0947 157.1 23.8  166  58
2024 12 17 07  06 23 36.034   +44 26 33.13  .11933 1.0950 157.1 23.8  165  58
2024 12 17 08  06 23 33.523   +44 26 15.30  .11956 1.0952 157.2 23.8  165  58
2024 12 17 09  06 23 31.019   +44 25 57.45  .11979 1.0954 157.2 23.8  165  58
2024 12 17 10  06 23 28.520   +44 25 39.58  .12002 1.0957 157.2 23.8  164  58
2024 12 17 11  06 23 26.027   +44 25 21.69  .12026 1.0959 157.2 23.8  164  58
2024 12 17 12  06 23 23.540   +44 25 03.78  .12049 1.0961 157.3 23.8  164  58
2024 12 17 13  06 23 21.059   +44 24 45.84  .12072 1.0963 157.3 23.8  164  58
2024 12 17 14  06 23 18.583   +44 24 27.89  .12095 1.0966 157.3 23.8  163  58
2024 12 17 15  06 23 16.114   +44 24 09.92  .12118 1.0968 157.3 23.8  163  58
2024 12 17 16  06 23 13.650   +44 23 51.92  .12141 1.0970 157.3 23.8  163  58
2024 12 17 17  06 23 11.192   +44 23 33.91  .12164 1.0973 157.4 23.8  162  58
2024 12 17 18  06 23 08.740   +44 23 15.87  .12188 1.0975 157.4 23.8  162  58
2024 12 17 19  06 23 06.294   +44 22 57.82  .12211 1.0977 157.4 23.8  162  58
2024 12 17 20  06 23 03.853   +44 22 39.74  .12234 1.0980 157.4 23.8  161  58
2024 12 17 21  06 23 01.418   +44 22 21.64  .12257 1.0982 157.5 23.8  161  58
2024 12 17 22  06 22 58.989   +44 22 03.53  .12280 1.0984 157.5 23.8  161  58
2024 12 17 23  06 22 56.566   +44 21 45.39  .12304 1.0987 157.5 23.8  161  58
2024 12 18 00  06 22 54.148   +44 21 27.23  .12327 1.0989 157.5 23.8  160  58
2024 12 18 01  06 22 51.736   +44 21 09.05  .12350 1.0991 157.5 23.8  160  58
2024 12 18 02  06 22 49.330   +44 20 50.85  .12373 1.0993 157.6 23.8  160  58
2024 12 18 03  06 22 46.929   +44 20 32.63  .12397 1.0996 157.6 23.9  159  58
2024 12 18 04  06 22 44.534   +44 20 14.38  .12420 1.0998 157.6 23.9  159  58
2024 12 18 05  06 22 42.144   +44 19 56.12  .12443 1.1000 157.6 23.9  159  58
2024 12 18 06  06 22 39.760   +44 19 37.84  .12466 1.1003 157.7 23.9  158  59
2024 12 18 07  06 22 37.381   +44 19 19.54  .12490 1.1005 157.7 23.9  158  59
2024 12 18 08  06 22 35.009   +44 19 01.21  .12513 1.1007 157.7 23.9  158  59
2024 12 18 09  06 22 32.641   +44 18 42.87  .12536 1.1010 157.7 23.9  158  59
2024 12 18 10  06 22 30.279   +44 18 24.50  .12560 1.1012 157.7 23.9  157  59
2024 12 18 11  06 22 27.923   +44 18 06.11  .12583 1.1014 157.8 23.9  157  59